Flag for Paraguay Weather past 2 weeks in Asuncion, Paraguay

Now
72 °F

Thunderstorms. Mostly cloudy.


Feels Like: 65 °F
Forecast: 72 / 86 °F
Wind: 20 mph from South

Location: Asuncion / Aeropuerto


UV Index: 3 (Moderate)

Visibility: 4 mi


Pressure: 29.89 "Hg

Humidity: 100%

Dew point: 72 °F

Location of AsuncionLocation

Historic Weather in Asuncion

°F

Asuncion temperature yesterday

Maximum temperature yesterday: 86 °F (at 3:00 PM)
Minimum temperature yesterday: 57 °F (at 1:00 AM)
Average temperature yesterday: 71 °F

Past Weeks' High & Low Weather Summary

 TemperatureHumidityPressure
High97 °F (Apr 7, 3:00 PM)100% (Apr 3, 5:00 AM)30.27 "Hg (Apr 3, 5:00 AM)
Low50 °F (Apr 14, 6:00 AM)34% (Apr 15, 2:00 PM)29.65 "Hg (Apr 8, 3:00 AM)
Average76 °F77%29.90 "Hg
* Reported Apr 2 7:00 PM — Apr 17 7:00 PM, Asuncion, Weather by CustomWeather, © 2014

Note: Actual official high and low records may vary slightly from our data, if they occured in-between our weather recording intervals... More about our weather records

Advertising

Historic Weather Conditions — Data for Previous 24 hours

 ConditionsComfort  
Time TempWeatherWind HumidityBarometerVisibility
7:00 PM
Apr 17
75 °FThunderstorms. Partly cloudy.16 mph89%29.80 "HgN/A
6:00 PM82 °FThunderstorms. Partly cloudy.3 mph79%29.80 "HgN/A
5:00 PM84 °FPartly cloudy.3 mph70%29.80 "HgN/A
4:00 PM88 °FPartly sunny.5 mph62%29.80 "HgN/A
3:00 PM90 °FPartly sunny.6 mph59%29.80 "HgN/A
2:00 PM90 °FPartly sunny.9 mph59%29.80 "HgN/A
1:00 PM88 °FScattered clouds.9 mph62%29.83 "HgN/A
12:00 PM88 °FSmoke.No wind62%29.86 "HgN/A
11:00 AM84 °FPassing clouds.12 mph70%29.89 "HgN/A
10:00 AM82 °FSunny.10 mph70%29.92 "Hg10 mi
9:30 AM81 °FSunny.10 mph74%29.92 "Hg10 mi
9:00 AM79 °FSunny.9 mph74%29.92 "Hg10 mi
8:30 AM77 °FSunny.10 mph79%29.92 "Hg10 mi
8:00 AM75 °FSunny.12 mph83%29.92 "Hg10 mi
7:30 AM75 °FSunny.7 mph78%29.89 "Hg10 mi
7:00 AM72 °FSunny.5 mph88%29.89 "Hg10 mi
6:00 AM70 °FSunny.5 mph94%29.86 "Hg10 mi
5:00 AM72 °FClear.7 mph88%29.86 "Hg10 mi
4:00 AM72 °FPassing clouds.9 mph88%29.83 "HgN/A
3:00 AM72 °FClear.8 mph88%29.83 "Hg10 mi
2:00 AM72 °FClear.7 mph88%29.86 "Hg10 mi
1:00 AM72 °FClear.6 mph88%29.86 "Hg10 mi
12:00 AM73 °FClear.6 mph83%29.89 "Hg10 mi
11:00 PM
Apr 16
73 °FPassing clouds.8 mph83%29.86 "HgN/A
10:00 PM75 °FPassing clouds.8 mph78%29.86 "HgN/A
9:00 PM75 °FPassing clouds.8 mph83%29.86 "HgN/A
8:00 PM75 °FClear.6 mph83%29.86 "Hg10 mi
Weather by CustomWeather, © 2014

See weather overview